This is the latest recevied weather packets stored in our database for station/object SP1BMW-13. If no packets are shown the sender has not sent any weather packets the latest 10 day(s).
| Time | Temp. | Humidity | Pressure | Rain* | Wind** | Luminosity | Snow |
|---|---|---|---|---|---|---|---|
| 1787923098 | 23.33° C | 57% | 1009 hPa | 0 mm | 0.45 m/s, 125° | 101 W/m² | - |
| 1787923038 | 23.33° C | 56% | 1009 hPa | 0 mm | 2.24 m/s, 134° | 94 W/m² | - |
| 1787922978 | 23.33° C | 55% | 1009 hPa | 0 mm | 1.34 m/s, 103° | 92 W/m² | - |
| 1787922918 | 23.33° C | 55% | 1009.3 hPa | 0 mm | 0.45 m/s, 34° | 94 W/m² | - |
| 1787922858 | 23.33° C | 55% | 1009.2 hPa | 0 mm | 0.89 m/s, 111° | 98 W/m² | - |
| 1787922798 | 23.33° C | 55% | 1008.9 hPa | 0 mm | 2.68 m/s, 42° | 100 W/m² | - |
| 1787922738 | 23.33° C | 56% | 1008.8 hPa | 0 mm | 2.24 m/s, 148° | 100 W/m² | - |
| 1787922678 | 23.33° C | 55% | 1008.6 hPa | 0 mm | 0.45 m/s, 300° | 99 W/m² | - |
| 1787922618 | 23.89° C | 55% | 1008.6 hPa | 0 mm | 0.89 m/s, 55° | 100 W/m² | - |
| 1787922558 | 23.89° C | 55% | 1008.7 hPa | 0 mm | 2.68 m/s, 108° | 105 W/m² | - |
| 1787922498 | 23.89° C | 55% | 1008.9 hPa | 0 mm | 1.79 m/s, 62° | 111 W/m² | - |
| 1787922438 | 23.89° C | 55% | 1009.2 hPa | 0 mm | 1.34 m/s, 132° | 118 W/m² | - |
| 1787922378 | 23.89° C | 55% | 1008.8 hPa | 0 mm | 1.79 m/s, 46° | 125 W/m² | - |
| 1787922318 | 23.89° C | 55% | 1009.1 hPa | 0 mm | 1.34 m/s, 29° | 134 W/m² | - |
| 1787922258 | 23.89° C | 54% | 1009 hPa | 0 mm | 1.79 m/s, 214° | 142 W/m² | - |
| 1787922198 | 23.89° C | 55% | 1009.2 hPa | 0 mm | 1.34 m/s, 100° | 156 W/m² | - |
| 1787922138 | 23.89° C | 55% | 1008.9 hPa | 0 mm | 1.34 m/s, 20° | 172 W/m² | - |
| 1787922078 | 23.89° C | 55% | 1009.3 hPa | 0 mm | 1.79 m/s, 25° | 189 W/m² | - |
| 1787922018 | 23.89° C | 54% | 1009.1 hPa | 0 mm | 0.89 m/s, 32° | 202 W/m² | - |
| 1787921958 | 23.89° C | 54% | 1009.1 hPa | 0 mm | 1.79 m/s, 7° | 222 W/m² | - |
| 1787921898 | 23.89° C | 54% | 1009.2 hPa | 0 mm | 1.34 m/s, 62° | 231 W/m² | - |
| 1787921838 | 23.89° C | 54% | 1009 hPa | 0 mm | 1.34 m/s, 104° | 238 W/m² | - |
| 1787921778 | 23.89° C | 55% | 1009 hPa | 0 mm | 0.45 m/s, 91° | 241 W/m² | - |
| 1787921719 | 23.89° C | 54% | 1009.1 hPa | 0 mm | 0.89 m/s, 37° | 245 W/m² | - |
| 1787921658 | 23.89° C | 54% | 1009.2 hPa | 0 mm | 1.79 m/s, 67° | 257 W/m² | - |
* Rain latest hour (hover to see other rain measurements)
** Current wind speed in m/s (hover to see current wind gust speed)